Simultaneous Nadir Overpasses (SNOs) Predictions

Prediction of SNOs between LANDSAT-8 and METOP-B Satellite Orbit:

Table of predicted SNOs for the next 14.0 days since TLE Epoch: 12/5/2015
Index Date (LANDSAT-8) Time (LANDSAT-8) Lat,Lon (LANDSAT-8) SZA (LANDSAT-8 ) Date (METOP-B) Time (METOP-B) Lat,Lon (METOP-B) SZA (METOP-B ) Distance(km) Time Diff (sec)
1 12/07/2015 13:05:15 -81.16,-155.90 74.07 12/07/2015 13:04:13 -81.16,-155.74 74.07 2.75 62
2 12/07/2015 13:54:40 81.19, 12.21 106.01 12/07/2015 13:54:52 81.18, 12.13 106.01 1.36 12
3 12/10/2015 08:39:29 -81.17, -89.30 73.79 12/10/2015 08:38:32 -81.17, -89.26 73.81 0.75 57
4 12/10/2015 09:28:54 81.19, 78.77 106.28 12/10/2015 09:29:10 81.20, 78.96 106.31 3.16 16
5 12/13/2015 04:13:43 -81.17, -22.78 73.58 12/13/2015 04:12:51 -81.17, -22.81 73.61 0.54 52
6 12/13/2015 05:03:08 81.20, 145.27 106.48 12/13/2015 05:03:29 81.20, 145.38 106.50 1.85 21
7 12/15/2015 23:47:56 -81.17, 43.67 73.45 12/15/2015 23:47:09 -81.17, 43.62 73.47 0.97 47
8 12/16/2015 00:37:21 81.20,-148.30 106.61 12/16/2015 00:37:47 81.19,-148.23 106.63 1.25 26
9 12/18/2015 19:22:10 -81.17, 110.05 73.39 12/18/2015 19:21:28 -81.17, 110.01 73.41 0.67 42




NCC Satellite Simultaneous Nadir Overpasses (SNOs) Prediction Service
